Location: Wald
(31.7579°N, 86.6655°W)
Time: 12:28:15
(UTC+00:00)

CZ-4B R/B - Pass Details

Date: 14 July 2020
Orbit: 390 x 465 km, 97.6° (Epoch: 08 August)

Event Time Altitude Azimuth Distance (km) Brightness Sun altitude
Rises 09:51:20 0° 155° (SSE) 2,469 5.0 -11.9°
Reaches altitude 10° 09:53:24 10° 149° (SSE) 1,605 4.2 -11.5°
Maximum altitude 09:56:44 46° 75° (ENE) 633 2.7 -10.9°
Drops below altitude 10° 10:00:05 10° 2° (N) 1,623 4.7 -10.3°
Sets 10:02:11 0° 356° (N) 2,501 5.6 -10.0°
